Weather History for KDUH - January, 2013

Change the Weather History Date:

Wednesday, January 9, 2013

  Actual Average (KTOL) Record (KTOL)
Temperature  
Mean Temperature 38 °F 26 °F  
Max Temperature 46 °F 33 °F 59 °F (1880)
Min Temperature 29 °F 19 °F -12 °F (1875)
Degree Days  
Heating Degree Days 28 39  
Month to date heating degree days 351  
Since 1 July heating degree days 2676  
Cooling Degree Days 0 0  
Month to date cooling degree days 0  
Year to date cooling degree days 0  
Moisture  
Dew Point 29 °F    
Average Humidity 67    
Maximum Humidity 83    
Minimum Humidity 49    
Precipitation  
Precipitation 0.00 in 0.07 in 0.71 in (1964)
Month to date precipitation 0.67  
Year to date precipitation 0.67  
Snow  
Snow 0.00 in 0.30 in - ()
Month to date snowfall 3.1  
Since 1 July snowfall 12.6  
Snow Depth -    
Sea Level Pressure  
Sea Level Pressure 30.21 in    
Wind  
Wind Speed 9 mph (SW)    
Max Wind Speed 18 mph    
Max Gust Speed 28 mph    
Visibility 10 miles    
Events      
T = Trace of Precipitation, MM = Missing Value Source: NWS Daily Summary

Daily Weather History Graph

Daily Weather History Graph

Search for Another Location

Airport or City:

Trip Planner

Search our weather history database for the weather conditions in past years. The results will help you decide how hot, cold, wet, or windy it might be!

Date:

Astronomy

Jan. 09, 2013 Rise Set
Actual Time 8:01 AM EST 5:22 PM EST
Civil Twilight 7:30 AM EST 5:53 PM EST
Nautical Twilight 6:55 AM EST 6:28 PM EST
Astronomical Twilight 6:22 AM EST 7:01 PM EST
Moon 5:39 AM EST (1/9) 3:23 PM EST (1/9)
Length of Visible Light 10h 23m
Length of Day
9h 21m
Waning Crescent, 6% of the Moon is Illuminated
Jan 9
Waning Crescent
Jan 11
New
Jan 18
First Quarter
Jan 26
Full
Feb 3
Last Quarter

Hourly Weather History & Observations

Time (EST) Temp. Windchill Dew Point Humidity Pressure Visibility Wind Dir Wind Speed Gust Speed Precip Events Conditions
12:16 AM 31.1 °F 26.4 °F 26.2 °F 82% 30.18 in 7.0 mi South 4.6 mph - N/A   Clear
12:36 AM 32.0 °F 27.5 °F 26.6 °F 80% 30.18 in 7.0 mi South 4.6 mph - N/A   Clear
12:56 AM 31.8 °F 26.2 °F 26.6 °F 81% 30.17 in 7.0 mi South 5.8 mph - N/A   Clear
1:16 AM 32.0 °F 25.6 °F 27.0 °F 82% 30.16 in 7.0 mi South 6.9 mph - N/A   Clear
1:35 AM 32.0 °F 27.5 °F 27.1 °F 82% 30.15 in 10.0 mi South 4.6 mph - N/A   Clear
1:56 AM 32.0 °F 27.5 °F 27.0 °F 82% 30.13 in 10.0 mi South 4.6 mph - N/A   Clear
2:16 AM 32.0 °F 27.5 °F 27.0 °F 82% 30.13 in 7.0 mi South 4.6 mph - N/A   Clear
2:35 AM 32.0 °F 28.7 °F 27.3 °F 83% 30.13 in 10.0 mi South 3.5 mph - N/A   Clear
2:56 AM 32.0 °F 27.5 °F 27.3 °F 83% 30.13 in 10.0 mi South 4.6 mph - N/A   Clear
3:15 AM 32.5 °F 27.1 °F 27.5 °F 82% 30.13 in 10.0 mi South 5.8 mph - N/A   Scattered Clouds
3:36 AM 34.9 °F 28.3 °F 28.4 °F 77% 30.12 in 10.0 mi SSW 8.1 mph - N/A   Mostly Cloudy
3:56 AM 36.5 °F 29.7 °F 29.3 °F 75% 30.11 in 10.0 mi SSW 9.2 mph - N/A   Overcast
4:15 AM 37.4 °F 30.3 °F 29.8 °F 74% 30.10 in 10.0 mi South 10.4 mph - N/A   Overcast
4:35 AM 37.8 °F 30.7 °F 30.0 °F 74% 30.09 in 10.0 mi South 10.4 mph - N/A   Overcast
4:56 AM 38.5 °F 31.6 °F 30.2 °F 72% 30.09 in 10.0 mi SSW 10.4 mph 16.1 mph N/A   Overcast
5:15 AM 39.2 °F 31.6 °F 31.1 °F 73% 30.08 in 10.0 mi SSW 12.7 mph 16.1 mph N/A   Overcast
5:36 AM 39.4 °F 32.7 °F 31.1 °F 72% 30.08 in 10.0 mi SSW 10.4 mph - N/A   Overcast
5:55 AM 40.5 °F 33.2 °F 31.6 °F 71% 30.08 in 10.0 mi SSW 12.7 mph - N/A   Overcast
6:15 AM 41.2 °F 36.0 °F 32.0 °F 70% 30.09 in 10.0 mi SW 8.1 mph - N/A   Overcast
6:36 AM 42.8 °F 36.6 °F 32.0 °F 66% 30.07 in 10.0 mi SW 11.5 mph 16.1 mph N/A   Overcast
6:55 AM 42.8 °F 35.4 °F 32.0 °F 66% 30.06 in 10.0 mi SSW 15.0 mph 20.7 mph N/A   Overcast
7:16 AM 42.8 °F 35.1 °F 32.0 °F 66% 30.07 in 10.0 mi SW 16.1 mph 20.7 mph N/A   Overcast
7:36 AM 42.8 °F 37.0 °F 32.0 °F 66% 30.08 in 10.0 mi SW 10.4 mph 18.4 mph N/A   Scattered Clouds
7:55 AM 42.8 °F 35.8 °F 32.0 °F 66% 30.09 in 10.0 mi SW 13.8 mph 24.2 mph N/A   Clear
8:16 AM 43.0 °F 35.4 °F 32.2 °F 66% 30.11 in 10.0 mi SW 16.1 mph 23.0 mph N/A   Clear
8:35 AM 42.4 °F 35.0 °F 32.0 °F 67% 30.12 in 10.0 mi WSW 15.0 mph 23.0 mph N/A   Clear
8:55 AM 41.9 °F 34.6 °F 32.2 °F 68% 30.12 in 10.0 mi SW 13.8 mph 23.0 mph N/A   Clear
9:16 AM 41.9 °F 34.6 °F 32.2 °F 68% 30.13 in 10.0 mi WSW 13.8 mph 23.0 mph N/A   Clear
9:35 AM 42.1 °F 34.5 °F 32.4 °F 68% 30.14 in 10.0 mi WSW 15.0 mph 23.0 mph N/A   Clear
9:56 AM 42.4 °F 35.3 °F 32.4 °F 68% 30.15 in 10.0 mi WSW 13.8 mph 24.2 mph N/A   Clear
10:15 AM 42.8 °F 35.8 °F 32.5 °F 67% 30.16 in 10.0 mi WSW 13.8 mph 24.2 mph N/A   Clear
10:35 AM 43.2 °F 35.6 °F 32.4 °F 66% 30.17 in 10.0 mi WSW 16.1 mph 24.2 mph N/A   Clear
10:56 AM 43.5 °F 37.5 °F 32.4 °F 65% 30.17 in 10.0 mi WSW 11.5 mph 23.0 mph N/A   Clear
11:15 AM 43.9 °F 37.5 °F 32.4 °F 64% 30.18 in 10.0 mi West 12.7 mph 19.6 mph N/A   Clear
11:36 AM 44.1 °F 37.4 °F 32.2 °F 63% 30.18 in 10.0 mi WSW 13.8 mph 20.7 mph N/A   Clear
11:56 AM 44.2 °F 36.4 °F 32.0 °F 62% 30.18 in 10.0 mi WSW 18.4 mph 25.3 mph N/A   Clear
12:15 PM 44.6 °F 37.8 °F 32.0 °F 61% 30.17 in 10.0 mi WSW 15.0 mph 23.0 mph N/A   Clear
12:36 PM 45.0 °F 38.5 °F 32.0 °F 60% 30.16 in 10.0 mi WSW 13.8 mph 24.2 mph N/A   Clear
12:55 PM 44.8 °F 38.0 °F 31.8 °F 60% 30.17 in 10.0 mi WSW 15.0 mph 25.3 mph N/A   Clear
1:16 PM 45.0 °F 38.5 °F 31.5 °F 59% 30.16 in 10.0 mi WSW 13.8 mph 23.0 mph N/A   Clear
1:36 PM 45.5 °F 38.6 °F 31.3 °F 58% 30.17 in 10.0 mi West 16.1 mph 27.6 mph N/A   Clear
1:55 PM 45.9 °F 40.8 °F 31.5 °F 57% 30.18 in 10.0 mi WSW 10.4 mph 17.3 mph N/A   Clear
2:16 PM 45.9 °F 40.0 °F 31.1 °F 56% 30.18 in 10.0 mi West 12.7 mph 23.0 mph N/A   Clear
2:35 PM 46.4 °F 40.4 °F 31.5 °F 56% 30.20 in 10.0 mi WSW 13.8 mph 24.2 mph N/A   Clear
2:56 PM 46.4 °F 40.4 °F 31.1 °F 55% 30.20 in 10.0 mi WSW 13.8 mph 25.3 mph N/A   Clear
3:16 PM 46.4 °F 40.4 °F 30.9 °F 55% 30.22 in 10.0 mi West 13.8 mph 23.0 mph N/A   Clear
3:35 PM 46.6 °F - 28.6 °F 50% 30.22 in 10.0 mi West 16.1 mph 25.3 mph N/A   Clear
3:56 PM 46.4 °F 39.8 °F 28.2 °F 49% 30.23 in 10.0 mi West 16.1 mph 24.2 mph N/A   Clear
4:15 PM 46.0 °F 40.2 °F 27.9 °F 49% 30.23 in 10.0 mi West 12.7 mph 20.7 mph N/A   Clear
4:36 PM 45.5 °F 38.9 °F 27.9 °F 50% 30.25 in 10.0 mi West 15.0 mph 19.6 mph N/A   Clear
4:56 PM 44.8 °F 39.0 °F 27.5 °F 51% 30.26 in 10.0 mi West 11.5 mph 19.6 mph N/A   Clear
5:15 PM 43.9 °F 38.3 °F 27.3 °F 52% 30.26 in 10.0 mi WSW 10.4 mph 17.3 mph N/A   Clear
5:36 PM 43.0 °F 37.7 °F 27.3 °F 54% 30.28 in 10.0 mi WSW 9.2 mph 16.1 mph N/A   Clear
5:55 PM 41.9 °F 37.5 °F 27.5 °F 57% 30.29 in 10.0 mi WSW 6.9 mph - N/A   Clear
6:15 PM 41.0 °F 35.2 °F 28.0 °F 60% 30.29 in 10.0 mi WSW 9.2 mph - N/A   Clear
6:36 PM 40.1 °F 34.1 °F 28.0 °F 62% 30.31 in 10.0 mi West 9.2 mph - N/A   Clear
6:55 PM 39.9 °F 34.5 °F 28.0 °F 63% 30.32 in 10.0 mi West 8.1 mph - N/A   Clear
7:16 PM 38.7 °F 32.9 °F 27.5 °F 64% 30.34 in 10.0 mi West 8.1 mph - N/A   Clear
7:36 PM 38.3 °F 32.5 °F 27.3 °F 65% 30.35 in 10.0 mi West 8.1 mph - N/A   Clear
7:55 PM 37.8 °F 33.3 °F 26.6 °F 64% 30.36 in 10.0 mi West 5.8 mph - N/A   Clear
8:16 PM 37.4 °F 33.8 °F 25.7 °F 63% 30.36 in 10.0 mi West 4.6 mph - N/A   Clear
8:35 PM 36.7 °F 32.0 °F 25.3 °F 64% 30.38 in 10.0 mi West 5.8 mph - N/A   Clear
8:56 PM 36.7 °F 31.2 °F 24.6 °F 62% 30.39 in 10.0 mi West 6.9 mph - N/A   Clear
9:15 PM 36.9 °F - 23.9 °F 59% 30.39 in 10.0 mi Calm Calm - N/A   Clear
9:36 PM 35.6 °F - 23.5 °F 62% 30.40 in 10.0 mi Calm Calm - N/A   Clear
9:56 PM 36.1 °F 33.5 °F 23.5 °F 60% 30.41 in 10.0 mi West 3.5 mph - N/A   Clear
10:15 PM 34.0 °F 31.0 °F 23.9 °F 67% 30.42 in 10.0 mi West 3.5 mph - N/A   Clear
10:36 PM 30.4 °F - 23.5 °F 76% 30.44 in 10.0 mi Calm Calm - N/A   Clear
10:55 PM 30.0 °F - 23.7 °F 77% 30.44 in 10.0 mi Calm Calm - N/A   Clear
11:16 PM 30.0 °F - 23.9 °F 78% 30.45 in 10.0 mi Calm Calm - N/A   Clear
11:36 PM 29.8 °F - 23.7 °F 78% 30.47 in 10.0 mi Calm Calm - N/A   Clear
11:55 PM 29.3 °F - 23.4 °F 78% 30.47 in 10.0 mi Calm Calm - N/A   Clear